sat.trackr.live / text

‹ back to catalog

ONEWEB-0197

NORAD 48236 · 2021-031AC

PAYLOAD ACTIVE UNKNOWN

§ Identity

Operator
Country
UK
Launch date
2021-04-25
Launch site
VOSTO
Launch vehicle
Mass (kg)
RCS (m²)

Purposes: comms

External: N2YO · Heavens-Above · Gunter

§ Orbital elements

Epoch: 2026-05-25T03:54:21.170592Z

Period
109.55 min
Inclination
87.8939°
Eccentricity
0.0002070
Mean motion
13.14502145 rev/d
Perigee alt
1,204.2 km
Apogee alt
1,207.4 km
Semi-major
7,583.9 km
B*
3.7701e-4
RAAN
294.2789°
Arg perigee
102.7135°
Mean anomaly
257.4226°
Rev number
24,516

§ Raw data

ONEWEB-01971 48236U 21031AC  26145.16274503  .00000153  00000+0  37701-3 0  99952 48236  87.8939 294.2789 0002070 102.7135 257.4226 13.14502145245160

JSON: /api/v1/satellites/48236 · /tle

For live sub-satellite position, see the globe view (requires WebGL).

§ Visibility from observer

Set your observer location to see the next 7 days of passes ≥ 10°. The values pass through the URL so the page stays shareable.

No JS? Fill the form by hand. The geolocation button needs JavaScript.